Winter Haven, FL

6:44 PM EDT on October 17, 2018 (GMT -0400)
Winter Haven's-Gilbert

Weather History for KGIF - January, 2018

Change the Weather History Date:

Saturday, January 13, 2018

  Actual Average Record
Temperature  
Mean Temperature 49 °F -  
Max Temperature 52 °F 71 °F 86 °F (1974)
Min Temperature 45 °F 49 °F 24 °F (1981)
Degree Days  
Heating Degree Days 16    
Moisture  
Dew Point 41 °F    
Average Humidity 78    
Maximum Humidity 80    
Minimum Humidity 74    
Precipitation  
Precipitation 0.00 in - - ()
Sea Level Pressure  
Sea Level Pressure 30.14 in    
Wind  
Wind Speed 9 mph (WNW)    
Max Wind Speed 15 mph    
Max Gust Speed 23 mph    
Visibility 10 miles    
Events      
Averages and records for this station are not official NWS values.
T = Trace of Precipitation, MM = Missing Value Source: NWS Daily Summary

Daily Weather History Graph

Daily Weather History Graph

Search for Another Location

Airport or City:

Astronomy

Jan. 13, 2018 Rise Set
Actual Time 7:19 AM EST 5:51 PM EST
Civil Twilight 6:54 AM EST 6:17 PM EST
Nautical Twilight 6:25 AM EST 6:46 PM EST
Astronomical Twilight 5:57 AM EST 7:14 PM EST
Moon 4:24 AM EST (1/13) 3:23 PM EST (1/13)
Length of Visible Light 11h 22m
Length of Day
10h 32m
Waning Crescent, 10% of the Moon is Illuminated
Jan 13
Waning Crescent
Jan 16
New
Jan 24
First Quarter
Jan 31
Full
Feb 7
Last Quarter

Hourly Weather History & Observations

Time (EST) Temp. Windchill Dew Point Humidity Pressure Visibility Wind Dir Wind Speed Gust Speed Precip Events Conditions
12:53 AM - - - N/A% 29.98 in 10.0 mi SSW 5.8 mph - N/A   Mostly Cloudy
1:53 AM - - - N/A% 29.99 in 10.0 mi SW 4.6 mph - N/A   Scattered Clouds
2:53 AM - - - N/A% 30.00 in 10.0 mi WSW 4.6 mph - N/A   Overcast
3:53 AM - - - N/A% 30.00 in 10.0 mi WNW 4.6 mph - N/A   Overcast
4:53 AM - - - N/A% 30.02 in 10.0 mi WNW 9.2 mph - N/A   Overcast
5:40 AM - - - N/A% 30.04 in 10.0 mi NW 9.2 mph - N/A   Overcast
5:53 AM - - - N/A% 30.05 in 10.0 mi NNW 10.4 mph - N/A   Overcast
6:17 AM - - - N/A% 30.05 in 10.0 mi NW 10.4 mph - N/A   Overcast
6:42 AM - - - N/A% 30.07 in 10.0 mi WNW 6.9 mph - N/A   Overcast
6:53 AM - - - N/A% 30.07 in 10.0 mi WNW 8.1 mph - N/A   Overcast
7:33 AM - - - N/A% 30.09 in 10.0 mi NW 10.4 mph 23.0 mph N/A   Overcast
7:43 AM - - - N/A% 30.09 in 10.0 mi NW 10.4 mph - N/A   Overcast
7:53 AM - - - N/A% 30.10 in 10.0 mi NW 10.4 mph - N/A   Overcast
8:53 AM - - - N/A% 30.13 in 10.0 mi WNW 10.4 mph - N/A   Overcast
9:53 AM - - - N/A% 30.16 in 10.0 mi WNW 9.2 mph 19.6 mph N/A   Overcast
10:53 AM - - - N/A% 30.16 in 10.0 mi WNW 11.5 mph 17.3 mph N/A   Overcast
11:53 AM - - - N/A% 30.17 in 10.0 mi WNW 15.0 mph - N/A   Overcast
12:53 PM - - - N/A% 30.16 in 10.0 mi WNW 13.8 mph - N/A   Overcast
1:53 PM - - - N/A% 30.14 in 10.0 mi WNW 13.8 mph - N/A   Overcast
2:53 PM - - - N/A% 30.15 in 10.0 mi WNW 15.0 mph - N/A   Overcast
3:53 PM 52.0 °F - 44.1 °F 74% 30.16 in 10.0 mi WNW 12.7 mph - N/A   Overcast
4:53 PM 50.0 °F - 43.0 °F 77% 30.19 in 10.0 mi NNW 9.2 mph - N/A   Overcast
5:53 PM 48.9 °F - 41.0 °F 74% 30.22 in 10.0 mi NNW 10.4 mph - N/A   Overcast
6:53 PM 48.0 °F - 41.0 °F 77% 30.25 in 10.0 mi NW 9.2 mph - N/A   Overcast
7:53 PM 46.9 °F - 41.0 °F 80% 30.27 in 10.0 mi NW 10.4 mph - N/A   Overcast
8:53 PM 46.9 °F - 41.0 °F 80% 30.30 in 10.0 mi NW 9.2 mph - N/A   Overcast
9:53 PM 46.9 °F - 39.9 °F 77% 30.32 in 10.0 mi NNW 9.2 mph - N/A   Overcast
10:53 PM 46.0 °F 41.4 °F 39.9 °F 79% 30.34 in 10.0 mi NW 9.2 mph - N/A   Overcast
11:53 PM 45.0 °F 38.9 °F 39.0 °F 80% 30.35 in 10.0 mi NNW 12.7 mph - N/A   Overcast